EW5584 Kingsland GA US current weather conditions

sailwx.info

Wind from 207

Air temperature 17.2° C
Dewpoint 16.7° C

Last reported at 2020-Feb-26 06:45 UTC.
Time now 2020-Feb-26 07:29 UTC

Location: N 30°46' W 081°44'.
View on Google Maps.

See reports from other nearby stations

  
Tides and Currents Weather Stations Pressure Air Temp Water Temp Dewpoint Dewpoint Depression Visibility Wind Speed Wind Dir Waves Ship Positions
date/time (UTC)wind fromknots sea level pressurealtimeterstation pressurevisibilityair tempwater tempwave heightnotes
2020-Feb-26 07:00 207 16.7
2020-Feb-26 06:45 207 17.2
2020-Feb-26 06:30 202 17.2
2020-Feb-26 06:15 207 17.2
2020-Feb-26 06:00 184 17.2
2020-Feb-26 05:45 044 17.2
2020-Feb-26 05:30 197 17.2
2020-Feb-26 05:15 200 17.2
2020-Feb-26 05:00 221 17.2
2020-Feb-26 04:45 188 17.2
2020-Feb-26 04:30 138 17.8
2020-Feb-26 04:15 130 17.8
2020-Feb-26 04:00 124 1 gusting 7 17.8
2020-Feb-26 03:45 135 1 gusting 8 17.8
2020-Feb-26 03:30 155 18.3
2020-Feb-26 03:15 191 18.3
2020-Feb-26 03:00 211 18.3
2020-Feb-26 02:45 123 18.3
2020-Feb-26 02:31 112 1 gusting 8 18.3
2020-Feb-26 02:16 125 2 gusting 8 18.3
2020-Feb-26 02:02 125 18.9
2020-Feb-26 01:48 109 18.9
2020-Feb-26 01:32 140 18.9
2020-Feb-26 01:16 142 18.9
2020-Feb-26 01:02 128 18.9
2020-Feb-26 00:47 140 18.9
2020-Feb-26 00:31 127 18.9
2020-Feb-26 00:16 136 18.3
2020-Feb-26 00:03 135 18.3
2020-Feb-25 23:45 095 18.3
2020-Feb-25 23:31 123 18.3
2020-Feb-25 23:16 123 18.3
2020-Feb-25 23:03 130 0 gusting 7 18.9
2020-Feb-25 22:46 136 18.3
2020-Feb-25 22:31 119 18.3
2020-Feb-25 22:16 132 18.3
2020-Feb-25 22:01 092 18.3
2020-Feb-25 21:46 119 17.8
2020-Feb-25 21:31 096 17.8
2020-Feb-25 21:16 116 17.8
2020-Feb-25 21:01 121 17.8
2020-Feb-25 20:46 118 18.3
2020-Feb-25 20:31 134 18.3
2020-Feb-25 20:15 121 18.3
2020-Feb-25 20:01 132 18.3
2020-Feb-25 19:46 122 17.8
2020-Feb-25 19:31 123 17.8
2020-Feb-25 19:17 118 18.3
2020-Feb-25 19:01 130 18.3
2020-Feb-25 18:46 107 17.8
2020-Feb-25 18:31 102 0 gusting 10 17.8
2020-Feb-25 18:16 117 2 gusting 10 17.8
2020-Feb-25 18:02 121 17.8
2020-Feb-25 17:46 122 2 gusting 10 17.8
2020-Feb-25 17:30 121 0 gusting 11 17.8
2020-Feb-25 17:16 098 17.8
2020-Feb-25 17:00 121 17.8
2020-Feb-25 16:45 115 17.8
2020-Feb-25 16:33 108 1 gusting 7 17.8
2020-Feb-25 16:16 115 17.8
2020-Feb-25 16:01 127 17.8
2020-Feb-25 15:46 106 0 gusting 6 17.8
2020-Feb-25 15:30 123 1 gusting 6 17.2
2020-Feb-25 15:16 125 17.2
2020-Feb-25 15:00 128 17.2
2020-Feb-25 14:46 167 17.2
2020-Feb-25 14:31 111 17.2
2020-Feb-25 14:16 115 16.7
2020-Feb-25 14:00 115 16.7
2020-Feb-25 13:45 115 16.7
2020-Feb-25 13:30 115 16.7
2020-Feb-25 13:15 026 16.1
2020-Feb-25 13:00 131 16.1
2020-Feb-25 12:45 130 16.1
2020-Feb-25 12:30 205 0 gusting 2 16.1
2020-Feb-25 12:16 207 16.1
2020-Feb-25 12:00 207 16.1
2020-Feb-25 11:45 207 16.1
2020-Feb-25 11:30 207 16.1
2020-Feb-25 11:15 207 16.1
2020-Feb-25 11:00 207 16.7
2020-Feb-25 10:45 207 16.7
2020-Feb-25 10:30 207 16.7
2020-Feb-25 10:15 207 17.2
2020-Feb-25 10:00 207 17.2
2020-Feb-25 09:45 207 17.8
2020-Feb-25 09:30 190 0 gusting 3 17.8
2020-Feb-25 09:15 196 17.8
2020-Feb-25 09:00 160 18.3
2020-Feb-25 08:45 133 2 gusting 7 18.3
2020-Feb-25 08:30 130 0 gusting 6 18.3
2020-Feb-25 08:15 141 1 gusting 7 18.3
2020-Feb-25 08:00 124 3 gusting 9 18.3
2020-Feb-25 07:45 117 5 gusting 9 18.3
2020-Feb-25 07:30 100 4 gusting 9 17.8
2020-Feb-25 07:17 123 3 gusting 7 17.8
2020-Feb-25 07:01 120 1 gusting 6 17.8
2020-Feb-25 06:46 128 3 gusting 7 17.8
2020-Feb-25 06:32 121 2 gusting 6 17.2
2020-Feb-25 06:16 132 2 gusting 12 17.2
2020-Feb-25 06:01 132 2 gusting 6 17.2
2020-Feb-25 05:46 142 17.8
2020-Feb-25 05:31 169 18.9
2020-Feb-25 05:16 127 4 gusting 9 18.9
2020-Feb-25 05:01 131 4 gusting 12 18.9
2020-Feb-25 04:46 121 4 gusting 9 18.9
2020-Feb-25 04:31 103 6 gusting 11 18.9
2020-Feb-25 04:15 128 5 gusting 9 18.3
2020-Feb-25 04:00 121 1 gusting 9 17.8
2020-Feb-25 03:45 106 1 gusting 8 17.8
2020-Feb-25 03:30 118 2 gusting 7 17.8
2020-Feb-25 03:15 121 1 gusting 6 17.2
2020-Feb-25 03:01 128 0 gusting 3 17.2
2020-Feb-25 02:45 123 17.2
2020-Feb-25 02:30 123 17.2
2020-Feb-25 02:15 124 0 gusting 4 17.2
2020-Feb-25 02:00 119 16.7
2020-Feb-25 01:45 119 16.7
2020-Feb-25 01:30 112 16.7
2020-Feb-25 01:15 111 16.7
2020-Feb-25 01:00 110 17.2
2020-Feb-25 00:45 111 17.8
2020-Feb-25 00:30 111 17.8
2020-Feb-25 00:15 111 17.8
2020-Feb-25 00:00 111 17.8
2020-Feb-24 23:45 111 18.3
2020-Feb-24 23:30 111 18.9
2020-Feb-24 23:15 111 19.4
2020-Feb-24 23:00 111 20.0
2020-Feb-24 22:45 088 20.6
2020-Feb-24 22:31 074 21.1
2020-Feb-24 22:15 067 21.7
2020-Feb-24 22:00 126 22.8
2020-Feb-24 21:46 122 0 gusting 7 23.3
2020-Feb-24 21:31 124 1 gusting 8 23.3
2020-Feb-24 21:15 126 0 gusting 8 23.3
2020-Feb-24 21:00 125 3 gusting 10 23.9
2020-Feb-24 20:45 130 2 gusting 9 24.4
2020-Feb-24 20:30 147 5 gusting 9 23.9
2020-Feb-24 20:15 115 3 gusting 10 24.4
2020-Feb-24 20:00 219 2 gusting 8 23.9
2020-Feb-24 19:47 117 3 gusting 12 23.3
2020-Feb-24 19:31 142 3 gusting 12 23.3
2020-Feb-24 19:16 118 1 gusting 10 23.3
2020-Feb-24 19:00 111 3 gusting 8 23.3
2020-Feb-24 18:46 127 5 gusting 9 23.3
2020-Feb-24 18:32 124 5 gusting 13 23.3
2020-Feb-24 18:01 117 6 gusting 11 22.8
2020-Feb-24 17:46 139 5 gusting 9 22.2
2020-Feb-24 17:31 068 3 gusting 12 22.2
2020-Feb-24 17:15 126 4 gusting 10 21.7
2020-Feb-24 17:00 123 4 gusting 9 20.6
2020-Feb-24 16:45 132 2 gusting 9 20.6
2020-Feb-24 16:30 124 1 gusting 7 20.0
2020-Feb-24 16:15 130 3 gusting 8 20.0
2020-Feb-24 16:00 146 2 gusting 8 19.4
2020-Feb-24 15:45 115 3 gusting 10 18.9
2020-Feb-24 15:30 136 3 gusting 6 18.3
2020-Feb-24 15:15 129 1 gusting 7 17.8
2020-Feb-24 15:00 132 1 gusting 4 17.2
2020-Feb-24 14:45 153 0 gusting 5 16.7
2020-Feb-24 14:31 128 2 gusting 6 15.6
2020-Feb-24 14:16 126 0 gusting 6 15.0
2020-Feb-24 14:02 126 13.9
2020-Feb-24 13:45 124 1 gusting 5 13.3
2020-Feb-24 13:31 165 12.8
2020-Feb-24 13:16 166 12.2
2020-Feb-24 13:01 088 11.7
2020-Feb-24 12:46 088 11.7
2020-Feb-24 12:31 061 11.7
2020-Feb-24 12:16 061 11.7
2020-Feb-24 12:00 061 11.7
2020-Feb-24 11:46 061 11.7
2020-Feb-24 11:31 061 11.7
2020-Feb-24 11:16 061 11.7
2020-Feb-24 11:01 061 11.1
2020-Feb-24 10:45 061 11.1
2020-Feb-24 10:31 061 11.1
2020-Feb-24 10:15 061 11.1
2020-Feb-24 10:00 061 11.1
2020-Feb-24 09:45 061 11.1
2020-Feb-24 09:30 061 11.1
2020-Feb-24 09:16 061 11.1
2020-Feb-24 09:00 061 11.1
2020-Feb-24 08:46 061 11.1
2020-Feb-24 08:30 061 11.1
2020-Feb-24 08:15 061 10.6
2020-Feb-24 08:00 061 10.6
2020-Feb-24 07:46 061 10.6
2020-Feb-24 07:30 061 10.6
2020-Feb-24 07:15 061 10.6
2020-Feb-24 07:00 061 10.6